Regional Weather Roundup
Issued by NWS Huntsville, AL

Home | Current Version | Previous Version | Text Only | Print | Product List | Glossary On
Versions: 1 2 3 4 5 6 7 8 9 10 11 12 13 14 15 16 17 18 19 20 21 22 23 24 25 26 27 28 29 30 31 32 33 34 35 36 37 38 39 40 41 42 43 44 45 46 47 48 49 50
000
ASUS44 KHUN 262210
RWRHUN

WEATHER ROUNDUP FOR THE TENNESSEE VALLEY
NATIONAL WEATHER SERVICE HUNTSVILLE AL
500 PM CDT THU MAR 26 2015

ALZ001>004-262300-
NORTHWEST ALABAMA

CITY           SKY/WX    TMP DP  RH WIND       PRES   REMARKS
COURTLAND HCN    N/A     57 N/A N/A NW14        N/A
BANKHEAD NF      N/A     64  49  57 N6          N/A
RUSSELLVILLE     N/A     57 N/A N/A MISG        N/A
SHOALS AIRPORT CLOUDY    55  48  77 N14G22    29.88R
SHOALS TVA RES   N/A     55 N/A N/A MISG        N/A
$$

ALZ005>007-016-262300-
NORTH CENTRAL ALABAMA

CITY           SKY/WX    TMP DP  RH WIND       PRES   REMARKS
CULLMAN AG STN   N/A     70 N/A N/A SW9         N/A
DECATUR AP     CLOUDY    60  54  80 NW18G28   29.83R
HUNTSVILLE AP  CLOUDY    62  54  74 NW20G28   29.81R
HUN NWS/UAH      N/A     60  52  73 N6          N/A
MERIDIANVILLE  LGT RAIN  55  50  82 N17       29.83R
REDSTONE ARSN  LGT RAIN  61  54  77 N20G28    29.81R
VINEMONT AP    FAIR      72  48  43 SW6       29.81S
$$

ALZ008>010-262300-
NORTHEAST ALABAMA

CITY           SKY/WX    TMP DP  RH WIND       PRES   REMARKS
ALBERTVILLE    CLOUDY    72  59  64 SW8       29.78F
FORT PAYNE     CLOUDY    72  46  40 S8        29.77F
SCOTTSBORO AP  CLOUDY    73  52  46 SW12G18   29.77F
SCOTTSBORO HCN   N/A     73 N/A N/A MISG        N/A
VALLEY HEAD      N/A     70 N/A N/A MISG        N/A
$$

TNZ076-096-097-262300-
SOUTHEASTERN MIDDLE TENNESSEE

CITY           SKY/WX    TMP DP  RH WIND       PRES   REMARKS
TULLAHOMA      CLOUDY    48  45  87 NW16      29.87R
WINCHESTER     CLOUDY    54  50  87 N14       29.85R
$$

...SURROUNDING SITES...

CITY           SKY/WX    TMP DP  RH WIND       PRES   REMARKS
ATLANTA        CLOUDY    72  50  45 SW10      29.81F
ANNISTON       CLOUDY    73  54  51 SW9       29.81R
BIRMINGHAM     CLOUDY    73  57  57 SW7       29.81F
CHATTANOOGA    CLOUDY    75  49  39 S12       29.74F
CORINTH        HVY RAIN  48  45  87 N10G17    29.94R
DALTON         CLOUDY    72  52  49 S6        29.77F
GADSDEN        CLOUDY    73  54  49 SW9       29.78F
GOLDEN TRNGL   CLOUDY    70  55  60 NW7       29.80S
HALEYVILLE       N/A     59  55  86 NW9G17    29.85R
JACKSON TN     CLOUDY    46  42  86 N10       29.97F
LEWISBURG      CLOUDY    49  45  86 N10       29.89R
MEMPHIS        LGT RAIN  48  43  82 N10       29.97F
MURFREESBORO   CLOUDY    48  46  93 N13       29.91R
NASHVILLE      CLOUDY    46  43  89 N13G21    29.92R
OXFORD MS      CLOUDY    46  45  93 N12G20    29.97S FOG
ROME           CLOUDY    73  52  47 S9        29.78S
SAVANNAH       CLOUDY    45  45 100 N17       29.95R
TUPELO         CLOUDY    54  45  71 NE23G32   29.90R
TUSCALOOSA     CLOUDY    75  55  49 W3        29.78F
$$

...GULF COAST WEATHER...

CITY           SKY/WX    TMP DP  RH WIND       PRES   REMARKS
GULFPORT       CLOUDY    67  62  84 SW7       29.83S
PASCAGOULA     CLOUDY    67  66  97 VRB5      29.81F
MOBILE         CLOUDY    67  65  93 S10       29.82F
GULF SHORES    LGT RAIN  68  66  96 S7        29.84F
PENSACOLA      LGT RAIN  69  64  84 S10       29.83F
DESTIN         CLOUDY    70  64  81 VRB3      29.86S
PANAMA CITY    CLOUDY    64  63  94 SE8       29.84F
APPALACHICOLA  CLOUDY    70  65  84 S5        29.89R
$$



USA.gov is the U.S. government's official web portal to all federal, state and local government web resources and services.